Powrót do katalogu

STARLINK-31292

AktywnyŁącznośćVLEO
NORAD 59081·PAYLOAD·🇺🇸 United States

Wystrzelony Feb 29, 2024 z Cape Canaveral Space Force Station

Loading…

Następne Przeloty (najbliższe 24 godziny)

TLE

ŚwieżeSource: CelesTrak SupGP

Epoka: Sep 15, 2026, 03:01 UTC

1 59081C 24041H   26258.12618056  .00040031  00000+0  14495-2 0  2586
2 59081  43.0028 320.6108 0001725 268.5167 190.7847 15.27568937    12

Śledź STARLINK-31292 w czasie rzeczywistym z AllMySat

Download on the App Store